Wind_Speed
24 26 33 44 48 51 56 54 58 61 59 57 54 53 49 45 40 31 29 30 32 34 36 34 35 36 36 37 37 36 35 33 34 34 34 35 36 37 36 34 36 38 40 41
23 23 30 41 48 52 56 56 58 60 57 54 51 49 46 43 41 35 31 36 37 38 38 38 37 37 37 37 37 38 37 37 36 37 36 37 38 38 35 36 38 40 43 43
24 24 25 35 43 49 50 50 54 57 51 51 52 48 45 42 40 39 36 41 40 39 40 39 38 38 39 39 39 40 40 39 39 39 39 39 39 38 37 38 41 44 45 44
24 22 25 32 40 45 46 47 52 54 49 49 49 49 45 42 42 42 43 41 40 40 39 39 40 40 40 40 41 42 41 41 41 41 41 41 40 39 40 41 45 46 46 45
19 21 25 30 38 41 44 45 47 46 48 51 50 49 43 47 44 42 41 40 39 40 40 40 41 40 41 42 43 43 43 42 43 43 42 43 41 41 42 46 48 47 47 46
17 19 24 29 33 36 40 43 43 44 47 51 49 48 45 48 41 40 40 40 40 41 42 41 42 42 43 44 44 45 45 45 44 44 44 41 42 44 48 49 48 49 48 45
15 19 24 28 31 32 38 41 41 43 47 49 47 47 44 47 41 40 40 40 40 41 42 43 44 44 45 46 47 46 46 45 44 42 40 43 46 49 51 50 51 50 48 50
13 17 20 23 27 32 38 38 39 41 44 44 44 47 42 40 39 39 39 40 42 43 44 46 46 47 48 48 47 46 45 44 41 42 45 48 51 52 52 53 52 52 54 54
14 13 15 21 27 33 34 33 34 35 39 39 40 38 36 38 38 39 40 42 43 45 46 48 48 49 48 47 45 44 43 43 44 47 50 53 53 54 54 54 55 56 57 60
12 14 16 22 26 29 30 28 30 33 32 34 35 36 36 36 37 40 42 43 44 46 47 48 47 46 44 42 41 41 43 46 49 52 53 55 55 55 56 58 59 61 62 64
8 13 20 23 26 28 28 28 29 30 30 31 32 36 36 37 39 41 43 45 46 46 47 46 44 42 41 42 43 45 48 51 53 54 55 55 56 57 60 62 64 66 68 68
0 9 14 19 22 22 24 26 27 28 29 30 31 35 30 32 35 38 41 43 45 45 44 42 41 41 43 45 48 50 52 53 54 55 55 57 61 62 65 67 68 69 70 72
7 2 6 10 15 18 22 23 26 27 28 27 30 30 27 28 31 36 39 41 41 40 40 41 42 45 47 50 51 52 54 54 54 56 60 61 65 67 68 69 71 73 73 73
2 5 3 5 8 13 17 19 22 26 28 23 26 25 27 30 32 34 35 36 37 39 41 44 46 47 49 51 52 52 52 56 59 61 64 67 68 69 71 72 73 74 73 72
3 5 6 8 9 10 12 15 17 18 19 26 19 23 29 27 32 34 36 37 40 42 44 46 48 50 50 51 52 56 58 61 64 66 68 69 70 71 72 72 71 72 73 75
8 7 8 11 12 13 14 15 16 19 21 21 26 24 31 33 36 36 38 41 43 44 46 47 47 49 52 55 57 60 63 65 67 69 70 70 70 70 68 70 72 74 76 78
11 12 14 14 16 15 13 17 22 23 24 27 29 29 31 37 37 40 41 42 43 44 46 50 52 55 57 60 62 63 65 67 68 69 68 66 67 69 71 74 76 78 79 80
18 19 19 17 19 19 17 19 23 25 26 29 31 33 34 37 40 41 42 45 47 49 51 54 56 59 61 63 64 65 66 66 65 64 65 67 69 72 73 75 78 80 82 84
22 24 25 25 25 26 25 23 27 29 31 33 35 37 40 42 44 46 47 49 52 54 56 58 60 61 62 63 63 63 64 64 65 65 68 70 72 74 76 78 80 82 85 86
29 30 30 32 35 34 29 28 31 34 38 36 39 42 44 46 48 49 51 53 55 56 57 58 59 60 61 61 61 62 62 63 66 68 70 73 75 77 78 80 82 86 89 92
33 35 35 37 41 39 35 38 39 41 41 44 45 46 47 47 49 50 52 53 55 57 59 61 61 60 61 62 63 64 65 66 68 71 72 74 76 78 81 84 87 90 93 97
40 42 42 43 46 46 43 43 44 46 46 47 47 48 49 51 53 55 56 56 57 57 57 58 60 61 61 61 62 65 67 69 71 72 73 75 78 82 86 88 91 94 96 93
46 46 48 49 50 51 52 54 54 54 54 54 55 56 56 56 56 55 54 55 56 57 58 58 59 59 61 62 64 66 68 70 72 74 76 79 82 85 88 91 94 92 84 81
49 46 44 44 43 46 49 52 54 55 56 57 57 57 57 56 56 55 56 57 58 58 58 58 59 61 63 65 66 67 70 72 74 76 79 81 83 85 88 91 87 77 75 77
45 42 40 44 43 46 45 48 50 51 52 53 53 54 55 55 56 57 58 59 59 59 60 61 62 64 64 65 67 70 72 74 76 78 79 81 84 86 86 77 70 69 70 73
46 42 47 45 48 49 50 48 50 51 52 51 52 53 54 55 56 57 58 58 60 61 62 62 63 64 66 69 71 72 73 75 76 76 78 80 82 81 74 65 61 61 63 62
Wind_Direction
204 209 206 208 211 210 211 213 217 223 219 222 225 230 232 234 236 229 235 239 245 251 252 252 259 266 271 276 280 284 286 284 282 283 287 290 294 298 302 304 306 308 308 307
204 208 209 205 205 211 213 210 215 220 220 223 225 227 230 232 238 233 236 241 245 251 250 252 258 264 269 274 279 284 286 286 286 286 290 292 294 298 302 303 305 305 304 304
204 212 215 207 204 208 210 213 215 219 218 222 226 228 229 231 230 237 236 240 244 248 249 254 260 265 269 275 279 282 286 287 287 287 289 291 295 300 301 301 301 301 302 302
206 213 214 206 204 205 206 208 212 215 216 219 222 228 229 231 231 233 236 241 245 248 252 257 262 266 270 275 278 282 286 287 288 288 290 292 296 298 298 297 297 299 301 301
211 211 209 202 204 203 202 203 211 213 214 217 218 225 222 229 231 234 237 242 246 250 255 259 263 267 270 274 278 282 285 286 288 289 290 294 296 296 294 294 297 300 300 297
216 215 205 202 200 201 200 202 204 208 213 218 219 224 222 234 235 237 240 243 247 252 256 259 263 266 270 273 277 280 283 286 289 290 293 295 295 292 292 295 299 298 296 294
213 196 195 194 196 199 198 198 201 207 212 217 220 224 223 234 235 237 241 245 248 251 255 259 263 266 269 273 276 280 284 288 291 293 291 290 288 289 293 296 295 294 293 292
169 179 186 190 195 198 194 192 199 209 214 218 221 227 229 235 239 240 243 247 251 254 258 261 264 267 270 274 279 284 287 290 291 288 286 287 288 291 292 292 292 291 292 294
152 167 182 193 196 192 189 190 198 208 215 221 224 231 234 236 241 245 246 248 252 255 259 262 265 269 273 277 281 285 288 288 285 283 284 288 290 290 292 292 292 294 295 295
154 165 188 193 192 189 186 188 198 209 214 223 229 232 236 238 241 245 250 252 254 256 259 263 266 270 276 281 284 284 282 281 282 284 287 289 290 291 293 295 295 294 295 296
169 183 188 193 192 187 187 189 199 209 214 222 229 234 236 241 244 248 251 253 256 259 261 264 269 276 280 281 281 280 280 281 283 286 288 290 293 295 294 295 295 295 294 294
335 205 201 196 195 196 192 199 205 208 215 223 231 237 238 242 246 249 250 252 255 258 263 270 275 279 279 278 278 280 282 285 287 288 291 292 294 295 295 294 293 294 294 294
109 77 234 216 210 202 202 207 213 219 223 225 234 241 242 246 246 248 251 254 259 266 271 273 275 274 275 277 280 282 284 287 289 291 292 293 293 293 292 293 294 294 294 295
209 206 184 238 235 229 225 221 225 229 232 239 240 253 251 250 252 255 259 263 267 270 271 272 274 276 279 281 284 286 288 290 292 292 293 292 292 293 294 295 295 296 297 299
271 260 252 239 229 232 234 241 251 260 254 253 254 256 259 260 261 262 265 267 268 270 273 275 278 281 285 286 288 290 291 291 291 291 292 293 294 296 296 297 298 299 300 299
266 239 249 254 258 251 245 250 255 258 262 265 259 258 263 263 267 270 271 272 274 276 280 282 284 285 287 288 288 289 290 290 291 293 294 295 296 296 298 299 300 299 299 299
274 266 265 258 256 257 266 260 263 262 265 267 267 265 266 270 273 275 277 280 282 282 282 283 284 284 286 287 288 289 291 291 292 293 295 297 299 300 301 301 300 300 300 300
283 280 274 264 258 262 262 255 259 263 263 265 268 270 271 272 273 275 276 277 277 278 280 282 284 286 287 288 290 290 291 293 295 297 299 300 301 302 301 301 301 301 301 301
285 282 279 278 274 274 266 262 266 267 267 268 271 273 273 273 274 276 278 280 282 282 283 284 285 287 289 291 292 293 295 297 300 301 301 302 302 302 302 302 302 303 302 303
287 286 283 285 283 282 282 280 277 277 274 275 274 275 277 278 279 280 281 282 283 285 287 289 290 291 292 294 296 298 300 301 301 302 302 303 303 303 303 304 304 304 306 305
283 282 283 283 282 281 287 287 286 284 285 285 287 288 288 288 288 288 288 288 289 291 292 294 296 297 298 299 299 299 300 301 302 302 302 302 304 304 305 305 307 307 307 307
285 286 286 283 281 283 283 282 282 283 284 285 285 287 288 289 288 288 289 290 291 292 293 294 295 296 296 297 297 298 300 301 302 303 304 305 305 306 308 309 309 309 309 310
283 285 286 283 283 284 285 284 283 283 283 284 286 287 288 288 288 289 289 290 291 291 292 292 293 294 295 296 297 300 301 302 303 304 306 307 309 310 310 311 312 313 313 312
281 281 283 283 281 280 281 281 282 283 284 286 288 290 291 292 293 293 292 292 292 293 293 293 294 296 297 299 300 300 301 303 305 307 308 309 310 311 312 313 315 314 314 315
280 281 280 277 278 274 277 281 283 285 287 288 288 289 289 290 290 291 291 292 293 294 294 295 296 297 298 298 299 302 304 305 306 308 309 311 312 313 315 316 315 316 318 320
281 287 285 283 280 280 281 286 288 290 290 289 289 289 290 291 291 292 292 292 292 293 294 295 295 296 297 299 301 302 304 306 307 309 311 313 314 315 315 314 315 318 320 323
Height
5689 5695 5702 5710 5719 5725 5731 5745 5756 5760 5772 5779 5787 5794 5800 5804 5809 5813 5818 5821 5823 5826 5828 5828 5829 5829 5829 5828 5827 5826 5825 5823 5822 5821 5819 5818 5815 5813 5811 5809 5806 5803 5800 5796
5688 5692 5695 5701 5710 5719 5727 5738 5746 5753 5768 5776 5783 5789 5796 5801 5806 5808 5813 5816 5819 5821 5822 5823 5823 5823 5823 5822 5821 5820 5819 5818 5817 5815 5813 5811 5809 5807 5805 5802 5800 5796 5793 5789
5686 5690 5695 5701 5708 5715 5724 5736 5745 5752 5763 5771 5777 5785 5791 5796 5800 5804 5808 5811 5814 5815 5816 5817 5818 5817 5816 5816 5815 5814 5812 5812 5810 5808 5806 5804 5802 5800 5798 5795 5792 5789 5785 5782
5685 5689 5693 5698 5705 5711 5722 5731 5738 5747 5759 5766 5773 5780 5785 5791 5796 5799 5802 5806 5808 5809 5811 5812 5812 5811 5810 5810 5808 5807 5806 5804 5803 5801 5799 5797 5795 5793 5790 5787 5783 5780 5777 5774
5685 5687 5691 5695 5701 5710 5717 5727 5736 5747 5753 5757 5766 5772 5782 5782 5789 5794 5798 5800 5802 5804 5805 5806 5805 5804 5804 5803 5801 5800 5798 5797 5795 5793 5791 5789 5787 5784 5781 5778 5774 5771 5768 5764
5684 5687 5690 5696 5702 5709 5717 5725 5733 5741 5747 5752 5761 5768 5778 5778 5786 5790 5793 5795 5797 5798 5798 5798 5798 5797 5796 5795 5793 5792 5790 5789 5787 5785 5783 5781 5779 5776 5772 5768 5765 5761 5758 5754
5684 5687 5691 5696 5702 5709 5716 5722 5729 5736 5740 5749 5758 5763 5774 5773 5780 5785 5787 5789 5790 5791 5791 5791 5790 5789 5788 5786 5785 5784 5782 5780 5779 5777 5775 5772 5769 5765 5761 5758 5754 5750 5747 5743
5687 5691 5694 5698 5704 5711 5714 5720 5727 5734 5740 5748 5754 5756 5767 5772 5776 5779 5781 5783 5783 5783 5783 5782 5782 5780 5779 5778 5777 5775 5774 5772 5770 5768 5765 5761 5757 5754 5750 5746 5742 5739 5735 5732
5689 5693 5697 5701 5706 5711 5715 5720 5728 5734 5740 5745 5751 5758 5765 5768 5770 5772 5774 5775 5776 5775 5775 5774 5773 5772 5771 5770 5769 5767 5766 5763 5760 5757 5753 5749 5746 5742 5738 5735 5731 5728 5724 5720
5693 5696 5700 5704 5708 5712 5715 5721 5727 5732 5739 5743 5747 5753 5758 5761 5764 5765 5766 5767 5767 5767 5766 5765 5764 5763 5763 5761 5760 5758 5755 5752 5749 5745 5741 5738 5734 5730 5726 5723 5719 5715 5711 5707
5699 5700 5704 5707 5710 5712 5715 5719 5725 5731 5736 5739 5744 5747 5751 5754 5756 5757 5758 5758 5757 5757 5756 5755 5755 5755 5754 5752 5750 5747 5744 5741 5737 5734 5730 5726 5723 5718 5714 5709 5705 5701 5696 5691
5705 5705 5706 5708 5711 5712 5714 5719 5724 5727 5732 5734 5737 5740 5743 5745 5747 5748 5748 5748 5747 5747 5747 5748 5748 5747 5745 5742 5739 5736 5732 5729 5726 5722 5718 5714 5710 5705 5700 5695 5690 5684 5679 5674
5706 5708 5709 5710 5711 5712 5714 5719 5721 5724 5726 5730 5732 5736 5738 5739 5739 5739 5739 5739 5739 5741 5741 5740 5738 5736 5734 5731 5728 5724 5721 5718 5714 5710 5705 5700 5695 5689 5684 5678 5673 5667 5661 5656
5709 5709 5710 5711 5711 5713 5715 5717 5718 5720 5722 5727 5728 5730 5731 5731 5731 5732 5733 5734 5734 5733 5731 5729 5727 5725 5722 5719 5716 5712 5709 5704 5700 5695 5690 5684 5679 5673 5667 5661 5654 5648 5643 5637
5709 5709 5709 5710 5711 5712 5714 5715 5716 5718 5721 5720 5726 5725 5723 5726 5725 5725 5725 5725 5724 5722 5721 5718 5716 5713 5711 5707 5703 5700 5695 5690 5685 5680 5674 5668 5662 5656 5649 5642 5636 5631 5625 5619
5707 5708 5707 5708 5709 5710 5711 5712 5713 5714 5716 5718 5718 5721 5717 5718 5716 5717 5716 5714 5713 5711 5709 5707 5704 5701 5697 5693 5689 5684 5680 5675 5669 5663 5657 5652 5645 5639 5632 5626 5619 5613 5606 5599
5704 5704 5704 5705 5705 5706 5709 5709 5708 5710 5711 5711 5711 5712 5712 5708 5708 5707 5705 5704 5702 5700 5697 5694 5690 5686 5683 5678 5674 5670 5665 5659 5654 5648 5642 5635 5628 5621 5614 5608 5601 5593 5586 5578
5702 5701 5700 5700 5700 5701 5703 5703 5703 5703 5703 5702 5701 5701 5702 5700 5698 5696 5694 5692 5689 5686 5683 5680 5676 5672 5669 5665 5660 5655 5649 5643 5637 5630 5623 5617 5610 5604 5596 5588 5581 5573 5564 5557
5696 5695 5694 5693 5694 5695 5696 5697 5696 5695 5695 5694 5694 5693 5691 5689 5687 5685 5683 5680 5677 5674 5670 5667 5663 5659 5655 5650 5644 5638 5631 5626 5620 5614 5607 5599 5592 5584 5577 5568 5560 5550 5541 5533
5690 5688 5688 5687 5684 5684 5689 5689 5687 5685 5683 5686 5683 5681 5679 5677 5675 5674 5670 5667 5663 5660 5656 5652 5648 5643 5637 5632 5626 5620 5615 5609 5603 5596 5588 5580 5572 5565 5557 5547 5538 5529 5517 5508
5684 5682 5681 5678 5673 5675 5679 5676 5675 5675 5677 5671 5669 5667 5665 5663 5661 5658 5655 5651 5648 5644 5640 5635 5630 5626 5621 5616 5610 5604 5598 5592 5585 5578 5571 5563 5554 5545 5535 5527 5516 5504 5493 5481
5675 5673 5673 5671 5667 5666 5667 5667 5665 5661 5658 5657 5656 5654 5652 5649 5646 5642 5639 5636 5632 5628 5623 5619 5614 5610 5604 5599 5594 5588 5582 5576 5568 5560 5552 5544 5534 5523 5512 5502 5492 5480 5465 5451
5666 5665 5662 5662 5660 5657 5654 5652 5651 5650 5647 5645 5642 5639 5637 5634 5631 5627 5624 5620 5616 5612 5607 5602 5596 5591 5587 5582 5576 5570 5564 5557 5550 5542 5533 5523 5513 5502 5490 5478 5467 5454 5439 5425
5651 5650 5650 5648 5647 5644 5641 5639 5637 5635 5633 5631 5628 5625 5621 5617 5614 5611 5607 5603 5599 5595 5590 5586 5581 5575 5571 5565 5558 5553 5547 5540 5532 5523 5513 5504 5495 5485 5472 5458 5441 5430 5417 5406
5638 5638 5636 5634 5632 5629 5629 5626 5623 5621 5619 5616 5613 5610 5606 5603 5599 5595 5592 5588 5584 5579 5575 5570 5564 5559 5554 5548 5541 5535 5529 5522 5514 5505 5496 5486 5475 5464 5453 5439 5425 5414 5401 5388
5626 5626 5620 5620 5617 5617 5615 5613 5610 5608 5605 5602 5599 5596 5592 5588 5584 5581 5577 5573 5569 5564 5559 5554 5549 5543 5537 5531 5525 5520 5513 5506 5498 5488 5477 5466 5455 5443 5432 5424 5418 5404 5391 5379